Regional Weather Roundup
Issued by NWS

Home | Current Version | Previous Version | Graphics & Text | Print | Product List | Glossary On
Versions: 1 2 3 4 5 6 7 8 9 10 11 12 13 14 15 16 17 18 19 20 21 22 23 24 25 26 27 28 29 30 31 32 33 34 35 36 37 38 39 40 41 42 43 44 45 46 47 48 49 50
000
ASUS43 KLOT 290006
RWRIL

ILLINOIS REGIONAL WEATHER ROUNDUP
NATIONAL WEATHER SERVICE CHICAGO/ROMEOVILLE IL
600 PM CST WED JAN 28 2015

NOTE: "FAIR" INDICATES FEW OR NO CLOUDS BELOW 12,000 FEET WITH NO
SIGNIFICANT WEATHER AND/OR OBSTRUCTIONS TO VISIBILITY.

* THESE STATIONS ARE NOT UNDER NWS QUALITY CONTROL. THEY ALSO MAY NOT
  REPORT WEATHER SUCH AS PRECIPITATION OR FOG.

ILZ001-002-007-009-015-016-024-290100-
NORTHWEST ILLINOIS

CITY           SKY/WX    TMP DP  RH WIND       PRES   REMARKS
MOLINE         CLOUDY    36  30  79 SE10      29.84F WCI  28
6HR MIN TEMP:  32; 6HR MAX TEMP:  36;

STERLING*      MOCLDY    34  28  80 SE13      29.90F WCI  25
SAVANNA*       MOCLDY    34  29  83 SE14      29.87F WCI  24
$$

ILZ003-004-008-010-011-017-018-290100-
NORTH CENTRAL ILLINOIS

CITY           SKY/WX    TMP DP  RH WIND       PRES   REMARKS
ROCKFORD       MOCLDY    32  24  72 S20G29    29.94F WCI  20
6HR MIN TEMP:  31; 6HR MAX TEMP:  33;

FREEPORT*      MOCLDY    31  26  82 SE20G25   29.91F WCI  19
ROCHELLE*      MOCLDY    31  27  83 SE21      29.94F WCI  19
DE KALB*       PTCLDY    30  24  78 SE16G24   29.95F WCI  19
PERU*          PTCLDY    34  29  82 SE18      29.95F WCI  23
$$

ILZ005-006-012>014-019>023-290100-
NORTHEAST ILLINOIS

CITY           SKY/WX    TMP DP  RH WIND       PRES   REMARKS
CHICAGO-OHARE  CLOUDY    31  21  66 SE16G23   29.99F WCI  20
6HR MIN TEMP:  31; 6HR MAX TEMP:  33;

CHICAGO-MIDWAY CLOUDY    34  22  61 SE14G28   30.01F WCI  25
6HR MIN TEMP:  33; 6HR MAX TEMP:  36;

AURORA         MOCLDY    32  23  69 SE18      29.97F WCI  20
6HR MIN TEMP:  32; 6HR MAX TEMP:  35;

LANSING*       CLOUDY    32  21  65 SE13G22   30.04F WCI  22
JOLIET*        MOCLDY    32  24  72 SE14      30.00F WCI  22
WAUKEGAN       CLOUDY    31  23  72 SE18G28   29.98F WCI  19
6HR MIN TEMP:  31; 6HR MAX TEMP:  33;

DUPAGE AIRPORT MOCLDY    32  22  66 SE15G22   29.96F WCI  22
6HR MIN TEMP:  31; 6HR MAX TEMP:  34;

KANKAKEE*      PTCLDY    33  26  76 SE13      30.02F WCI  24
WHEELING       CLOUDY    32  21  64 SE16      30.01F WCI  21
6HR MIN TEMP:  32; 6HR MAX TEMP:  34;

MORRIS*        PTCLDY    33  27  77 SE16      29.98F WCI  23
ROMEOVILLE*    MOCLDY    32  24  72 SE16G22   29.99F WCI  21
NORTHERLY ISL    N/A     32  24  73 SE18        N/A  WCI  20
$$

LMZ740>746-290100-
SOUTHERN LAKE MICHIGAN

STATION/POSITION SKY/WX   TEMP    WIND        PRES    VSBY  WAVE
                          AIR SEA DIR/SP/G                  HT/PER
                          (F)     (DEG/KT/KT) (MB)    (MI)  (FT/S)
WAUKEGAN HARBOR            32     150/ 26/ 32   N/A
HARRISON CRIB              32     140/ 19/ 25   N/A
BURNHAM HARBOR             32     140/ 12/ 20   N/A
CALUMET HARBOR             33     130/ 16/ 20   N/A
MICHIGAN CITY              30     120/ 16/ 23   N/A
$$

ILZ025>027-034>036-040-047-049-050-058-095>099-290100-
WEST-CENTRAL ILLINOIS

CITY           SKY/WX    TMP DP  RH WIND       PRES   REMARKS
QUINCY         CLOUDY    43  32  65 SE14      29.81F
GALESBURG*     MOCLDY    37  32  81 SE13G22   29.84F WCI  29
MACOMB*        MOCLDY    38  33  81 SE16      29.86F WCI  29
JACKSONVILLE*  MOCLDY    43  32  66 SE15G21   29.89F
PITTSFIELD*    CLOUDY    42  33  69 SE16      29.86F
$$

ILZ028>032-037-038-041>044-048-051>054-059>061-290100-
CENTRAL ILLINOIS

CITY           SKY/WX    TMP DP  RH WIND       PRES   REMARKS
PONTIAC        PTCLDY    35  29  79 SE16      29.98F WCI  25
BLOOMINGTON    PTCLDY    34  30  85 S23G30    29.95F WCI  22
DECATUR        CLEAR     36  28  73 SE13      30.00F WCI  27
PEORIA         MOCLDY    39  30  70 S20G26    29.92F WCI  29
6HR MIN TEMP:  37; 6HR MAX TEMP:  42;

LACON*         PTCLDY    35  29  79 SE16      29.92F WCI  25
LINCOLN*       PTCLDY    37  32  82 SE13      29.96F WCI  28
SPRINGFIELD    PTCLDY    40  31  70 S22G29    29.94F
6HR MIN TEMP:  38; 6HR MAX TEMP:  43;

TAYLORVILLE    PTCLDY    36  32  87 SE17      29.97F WCI  25
$$

ILZ033-039-045-046-055>057-062-063-290100-
EAST-CENTRAL ILLINOIS

CITY           SKY/WX    TMP DP  RH WIND       PRES   REMARKS
CHAMPAIGN      PTCLDY    34  26  72 SE16      30.02F WCI  24
DANVILLE*      CLEAR     33  24  67 SE13      30.02F WCI  24
RANTOUL*       PTCLDY    35  27  72 SE17      30.01F WCI  24
MATTOON        PTCLDY    36  25  64 SE18G26   30.02F WCI  26
PARIS*         CLEAR     34  26  71 SE16      30.07F WCI  24
$$

ILZ079-100>102-290100-
SOUTHWEST ILLINOIS

CITY           SKY/WX    TMP DP  RH WIND       PRES   REMARKS
ALTON          MOCLDY    43  30  61 S12G21    29.98F
BELLEVILLE     MOCLDY    42  32  68 SE12      29.99F
CAHOKIA*       PTCLDY    45  33  63 SE14      29.98F
SPARTA*        PTCLDY    41  32  69 SE12G18   30.02F
$$

ILZ064>066-069>071-074>076-080>082-084>086-088>090-092>094-290100-
SOUTH-CENTRAL ILLINOIS

CITY           SKY/WX    TMP DP  RH WIND       PRES   REMARKS
CARBONDALE     CLEAR     42  30  62 SE8       30.05F
6HR MIN TEMP:  42; 6HR MAX TEMP:  47;

CAIRO*         CLEAR     44  32  61 SE6       30.09F
EFFINGHAM*     CLEAR     38  25  59 SE14G20   30.06F WCI  29
MARION         PTCLDY    45  32  61 S9        30.08F
MT. VERNON     PTCLDY    43  28  56 SE7       30.07F
CENTRALIA*     PTCLDY    41  30  66 SE10      30.04F
SALEM*         PTCLDY    44  32  62 SE8       30.05F
METROPOLIS*    CLEAR     45  31  58 SE3       30.10F
$$

ILZ067-068-072-073-078-083-087-091-290100-
SOUTHEAST ILLINOIS

CITY           SKY/WX    TMP DP  RH WIND       PRES   REMARKS
LAWRENCEVILLE  CLEAR     34  25  69 SE10      30.13F WCI  26
FLORA*         CLEAR     37  29  72 SE12      30.08F WCI  30
FAIRFIELD*     PTCLDY    39  30  70 SE8       30.08F WCI  34
HARRISBURG*    CLEAR     41  32  70 SE8       30.11F
ROBINSON*      PTCLDY    36  23  60 SE12      30.12F WCI  27
CARMI*         CLEAR     40  31  72 SE12      30.10F
$$

ABBREVIATIONS USED IN REMARKS
   TC - TEMPERATURE IN CELSIUS
  WCI - WIND CHILL INDEX
   HX - HEAT INDEX
  VSB - VISIBILITY
$$



USA.gov is the U.S. government's official web portal to all federal, state and local government web resources and services.